Location: *
(50.9167°S, 179.4000°W)
Time: 12:01:24
(UTC+00:00)

ATLAS 2AS CENTAUR R/B - Pass Details

Date: 22 June 2024
Orbit: 1019 x 1192 km, 63.7° (Epoch: 21 July)

Event Time Altitude Azimuth Distance (km) Brightness Sun altitude
Exits shadow 16:13:54 30° 177° (S) 1,932 4.0 -34.5°
Drops below altitude 10° 16:20:08 10° 119° (ESE) 3,081 5.8 -33.5°
Sets 16:23:21 0° 108° (ESE) 4,064 6.7 -33.0°
